Year,Month,Day,Hour,Minute,Value (Times are PST for insolation in W/m^2)
2010,01,31,00,00,0.00
2010,01,31,00,01,0.00
2010,01,31,00,02,0.00
2010,01,31,00,03,0.00
2010,01,31,00,04,0.00
2010,01,31,00,05,0.00
2010,01,31,00,06,0.00
2010,01,31,00,07,0.00
2010,01,31,00,08,0.00
2010,01,31,00,09,0.00
2010,01,31,00,10,0.00
2010,01,31,00,11,0.00
2010,01,31,00,12,0.00
2010,01,31,00,13,0.00
2010,01,31,00,17,0.00
2010,01,31,00,18,0.00
2010,01,31,00,19,0.00
2010,01,31,00,20,0.00
2010,01,31,00,21,0.00
2010,01,31,00,22,0.00
2010,01,31,00,23,0.00
2010,01,31,00,24,0.00
2010,01,31,00,25,0.00
2010,01,31,00,26,0.00
2010,01,31,00,27,0.00
2010,01,31,00,28,0.00
2010,01,31,00,29,0.00
2010,01,31,00,30,0.00
2010,01,31,00,31,0.00
2010,01,31,00,32,0.00
2010,01,31,00,33,0.00
2010,01,31,00,34,0.00
2010,01,31,00,35,0.00
2010,01,31,00,36,0.00
2010,01,31,00,37,0.00
2010,01,31,00,38,0.00
2010,01,31,00,39,0.00
2010,01,31,00,40,0.00
2010,01,31,00,41,0.00
2010,01,31,00,42,0.00
2010,01,31,00,43,0.00
2010,01,31,00,44,0.00
2010,01,31,00,45,0.00
2010,01,31,00,46,0.00
2010,01,31,00,47,0.00
2010,01,31,00,48,0.00
2010,01,31,00,49,0.00
2010,01,31,00,50,0.00
2010,01,31,00,51,0.00
2010,01,31,00,52,0.00
2010,01,31,00,53,0.00
2010,01,31,00,54,0.00
2010,01,31,00,55,0.00
2010,01,31,00,56,0.00
2010,01,31,00,57,0.00
2010,01,31,00,58,0.00
2010,01,31,00,59,0.00
2010,01,31,01,00,0.00
2010,01,31,01,01,0.00
2010,01,31,01,02,0.00
2010,01,31,01,03,0.00
2010,01,31,01,04,0.00
2010,01,31,01,05,0.00
2010,01,31,01,06,0.00
2010,01,31,01,07,0.00
2010,01,31,01,08,0.00
2010,01,31,01,09,0.00
2010,01,31,01,10,0.00
2010,01,31,01,11,0.00
2010,01,31,01,12,0.00
2010,01,31,01,13,0.00
2010,01,31,01,14,0.00
2010,01,31,01,15,0.00
2010,01,31,01,16,0.00
2010,01,31,01,17,0.00
2010,01,31,01,18,0.00
2010,01,31,01,19,0.00
2010,01,31,01,20,0.00
2010,01,31,01,21,0.00
2010,01,31,01,22,0.00
2010,01,31,01,23,0.00
2010,01,31,01,24,0.00
2010,01,31,01,25,0.00
2010,01,31,01,26,0.00
2010,01,31,01,27,0.00
2010,01,31,01,28,0.00
2010,01,31,01,29,0.00
2010,01,31,01,30,0.00
2010,01,31,01,31,0.00
2010,01,31,01,32,0.00
2010,01,31,01,33,0.00
2010,01,31,01,34,0.00
2010,01,31,01,35,0.00
2010,01,31,01,36,0.00
2010,01,31,01,37,0.00
2010,01,31,01,38,0.00
2010,01,31,01,39,0.00
2010,01,31,01,40,0.00
2010,01,31,01,41,0.00
2010,01,31,01,42,0.00
2010,01,31,01,43,0.00
2010,01,31,01,44,0.00
2010,01,31,01,45,0.00
2010,01,31,01,46,0.00
2010,01,31,01,47,0.00
2010,01,31,01,48,0.00
2010,01,31,01,49,0.00
2010,01,31,01,50,0.00
2010,01,31,01,51,0.00
2010,01,31,01,52,0.00
2010,01,31,01,53,0.00
2010,01,31,01,54,0.00
2010,01,31,01,55,0.00
2010,01,31,01,56,0.00
2010,01,31,01,57,0.00
2010,01,31,01,58,0.00
2010,01,31,01,59,0.00
2010,01,31,02,00,0.00
2010,01,31,02,01,0.00
2010,01,31,02,02,0.00
2010,01,31,02,03,0.00
2010,01,31,02,04,0.00
2010,01,31,02,05,0.00
2010,01,31,02,06,0.00
2010,01,31,02,07,0.00
2010,01,31,02,08,0.00
2010,01,31,02,09,0.00
2010,01,31,02,10,0.00
2010,01,31,02,11,0.00
2010,01,31,02,12,0.00
2010,01,31,02,13,0.00
2010,01,31,02,14,0.00
2010,01,31,02,15,0.00
2010,01,31,02,16,0.00
2010,01,31,02,17,0.00
2010,01,31,02,18,0.00
2010,01,31,02,19,0.00
2010,01,31,02,20,0.00
2010,01,31,02,21,0.00
2010,01,31,02,22,0.00
2010,01,31,02,23,0.00
2010,01,31,02,24,0.00
2010,01,31,02,25,0.00
2010,01,31,02,26,0.00
2010,01,31,02,27,0.00
2010,01,31,02,28,0.00
2010,01,31,02,29,0.00
2010,01,31,02,30,0.00
2010,01,31,02,31,0.00
2010,01,31,02,32,0.00
2010,01,31,02,33,0.00
2010,01,31,02,34,0.00
2010,01,31,02,35,0.00
2010,01,31,02,36,0.00
2010,01,31,02,37,0.00
2010,01,31,02,38,0.00
2010,01,31,02,39,0.00
2010,01,31,02,40,0.00
2010,01,31,02,41,0.00
2010,01,31,02,42,0.00
2010,01,31,02,43,0.00
2010,01,31,02,44,0.00
2010,01,31,02,45,0.00
2010,01,31,02,46,0.00
2010,01,31,02,47,0.00
2010,01,31,02,48,0.00
2010,01,31,02,49,0.00
2010,01,31,02,50,0.00
2010,01,31,02,51,0.00
2010,01,31,02,52,0.00
2010,01,31,02,53,0.00
2010,01,31,02,54,0.00
2010,01,31,02,55,0.00
2010,01,31,02,56,0.00
2010,01,31,02,57,0.00
2010,01,31,02,58,0.00
2010,01,31,02,59,0.00
2010,01,31,03,00,0.00
2010,01,31,03,01,0.00
2010,01,31,03,02,0.00
2010,01,31,03,03,0.00
2010,01,31,03,04,0.00
2010,01,31,03,05,0.00
2010,01,31,03,06,0.00
2010,01,31,03,07,0.00
2010,01,31,03,08,0.00
2010,01,31,03,09,0.00
2010,01,31,03,10,0.00
2010,01,31,03,11,0.00
2010,01,31,03,12,0.00
2010,01,31,03,13,0.00
2010,01,31,03,14,0.00
2010,01,31,03,15,0.00
2010,01,31,03,16,0.00
2010,01,31,03,17,0.00
2010,01,31,03,18,0.00
2010,01,31,03,19,0.00
2010,01,31,03,20,0.00
2010,01,31,03,21,0.00
2010,01,31,03,22,0.00
2010,01,31,03,23,0.00
2010,01,31,03,24,0.00
2010,01,31,03,25,0.00
2010,01,31,03,26,0.00
2010,01,31,03,27,0.00
2010,01,31,03,28,0.00
2010,01,31,03,29,0.00
2010,01,31,03,30,0.00
2010,01,31,03,31,0.00
2010,01,31,03,32,0.00
2010,01,31,03,33,0.00
2010,01,31,03,34,0.00
2010,01,31,03,35,0.00
2010,01,31,03,36,0.00
2010,01,31,03,37,0.00
2010,01,31,03,38,0.00
2010,01,31,03,39,0.00
2010,01,31,03,40,0.00
2010,01,31,03,41,0.00
2010,01,31,03,42,0.00
2010,01,31,03,43,0.00
2010,01,31,03,44,0.00
2010,01,31,03,45,0.00
2010,01,31,03,46,0.00
2010,01,31,03,47,0.00
2010,01,31,03,48,0.00
2010,01,31,03,49,0.00
2010,01,31,03,50,0.00
2010,01,31,03,51,0.00
2010,01,31,03,52,0.00
2010,01,31,03,53,0.00
2010,01,31,03,54,0.00
2010,01,31,03,55,0.00
2010,01,31,03,56,0.00
2010,01,31,03,57,0.00
2010,01,31,03,58,0.00
2010,01,31,03,59,0.00
2010,01,31,04,00,0.00
2010,01,31,04,01,0.00
2010,01,31,04,02,0.00
2010,01,31,04,03,0.00
2010,01,31,04,04,0.00
2010,01,31,04,05,0.00
2010,01,31,04,06,0.00
2010,01,31,04,07,0.00
2010,01,31,04,08,0.00
2010,01,31,04,09,0.00
2010,01,31,04,10,0.00
2010,01,31,04,11,0.00
2010,01,31,04,12,0.00
2010,01,31,04,13,0.00
2010,01,31,04,14,0.00
2010,01,31,04,15,0.00
2010,01,31,04,16,0.00
2010,01,31,04,17,0.00
2010,01,31,04,18,0.00
2010,01,31,04,19,0.00
2010,01,31,04,20,0.00
2010,01,31,04,21,0.00
2010,01,31,04,22,0.00
2010,01,31,04,23,0.00
2010,01,31,04,24,0.00
2010,01,31,04,25,0.00
2010,01,31,04,26,0.00
2010,01,31,04,27,0.00
2010,01,31,04,28,0.00
2010,01,31,04,29,0.00
2010,01,31,04,30,0.00
2010,01,31,04,31,0.00
2010,01,31,04,32,0.00
2010,01,31,04,33,0.00
2010,01,31,04,34,0.00
2010,01,31,04,35,0.00
2010,01,31,04,36,0.00
2010,01,31,04,37,0.00
2010,01,31,04,38,0.00
2010,01,31,04,39,0.00
2010,01,31,04,40,0.00
2010,01,31,04,41,0.00
2010,01,31,04,42,0.00
2010,01,31,04,43,0.00
2010,01,31,04,44,0.00
2010,01,31,04,45,0.00
2010,01,31,04,46,0.00
2010,01,31,04,47,0.00
2010,01,31,04,48,0.00
2010,01,31,04,49,0.00
2010,01,31,04,50,0.00
2010,01,31,04,51,0.00
2010,01,31,04,52,0.00
2010,01,31,04,53,0.00
2010,01,31,04,54,0.00
2010,01,31,04,55,0.00
2010,01,31,04,56,0.00
2010,01,31,04,57,0.00
2010,01,31,04,58,0.00
2010,01,31,04,59,0.00
2010,01,31,05,00,0.00
2010,01,31,05,01,0.00
2010,01,31,05,02,0.00
2010,01,31,05,03,0.00
2010,01,31,05,04,0.00
2010,01,31,05,05,0.00
2010,01,31,05,06,0.00
2010,01,31,05,07,0.00
2010,01,31,05,08,0.00
2010,01,31,05,09,0.00
2010,01,31,05,10,0.00
2010,01,31,05,11,0.00
2010,01,31,05,12,0.00
2010,01,31,05,13,0.00
2010,01,31,05,14,0.00
2010,01,31,05,15,0.00
2010,01,31,05,16,0.00
2010,01,31,05,17,0.00
2010,01,31,05,18,0.00
2010,01,31,05,19,0.00
2010,01,31,05,20,0.00
2010,01,31,05,21,0.00
2010,01,31,05,22,0.00
2010,01,31,05,23,0.00
2010,01,31,05,24,0.00
2010,01,31,05,25,0.00
2010,01,31,05,26,0.00
2010,01,31,05,27,0.00
2010,01,31,05,28,0.00
2010,01,31,05,29,0.00
2010,01,31,05,30,0.00
2010,01,31,05,31,0.00
2010,01,31,05,32,0.00
2010,01,31,05,33,0.00
2010,01,31,05,34,0.00
2010,01,31,05,35,0.00
2010,01,31,05,36,0.00
2010,01,31,05,37,0.00
2010,01,31,05,38,0.00
2010,01,31,05,39,0.00
2010,01,31,05,40,0.00
2010,01,31,05,41,0.00
2010,01,31,05,42,0.00
2010,01,31,05,43,0.00
2010,01,31,05,44,0.00
2010,01,31,05,45,0.00
2010,01,31,05,46,0.00
2010,01,31,05,47,0.00
2010,01,31,05,48,0.00
2010,01,31,05,49,0.00
2010,01,31,05,50,0.00
2010,01,31,05,51,0.00
2010,01,31,05,52,0.00
2010,01,31,05,53,0.00
2010,01,31,05,54,0.00
2010,01,31,05,55,0.00
2010,01,31,05,56,0.00
2010,01,31,05,57,0.00
2010,01,31,05,58,0.00
2010,01,31,05,59,0.00
2010,01,31,06,00,0.00
2010,01,31,06,01,0.00
2010,01,31,06,02,0.00
2010,01,31,06,03,0.00
2010,01,31,06,04,0.00
2010,01,31,06,05,0.00
2010,01,31,06,06,0.00
2010,01,31,06,07,0.00
2010,01,31,06,08,0.00
2010,01,31,06,09,0.00
2010,01,31,06,10,0.00
2010,01,31,06,11,0.00
2010,01,31,06,12,0.00
2010,01,31,06,13,0.00
2010,01,31,06,14,0.00
2010,01,31,06,15,0.00
2010,01,31,06,16,0.00
2010,01,31,06,17,0.00
2010,01,31,06,18,0.00
2010,01,31,06,19,0.00
2010,01,31,06,20,0.00
2010,01,31,06,21,0.00
2010,01,31,06,22,0.00
2010,01,31,06,23,0.00
2010,01,31,06,24,0.00
2010,01,31,06,25,0.00
2010,01,31,06,26,0.00
2010,01,31,06,27,0.00
2010,01,31,06,28,0.00
2010,01,31,06,29,0.00
2010,01,31,06,30,0.00
2010,01,31,06,31,0.00
2010,01,31,06,32,0.00
2010,01,31,06,33,0.00
2010,01,31,06,34,0.00
2010,01,31,06,35,0.00
2010,01,31,06,36,0.00
2010,01,31,06,37,0.00
2010,01,31,06,38,0.00
2010,01,31,06,39,0.00
2010,01,31,06,40,0.00
2010,01,31,06,41,0.00
2010,01,31,06,42,0.00
2010,01,31,06,43,0.00
2010,01,31,06,44,0.00
2010,01,31,06,45,0.00
2010,01,31,06,46,0.00
2010,01,31,06,47,0.00
2010,01,31,06,48,0.00
2010,01,31,06,49,0.00
2010,01,31,06,50,0.00
2010,01,31,06,51,0.00
2010,01,31,06,52,0.00
2010,01,31,06,53,0.00
2010,01,31,06,54,0.00
2010,01,31,06,55,0.00
2010,01,31,06,56,0.00
2010,01,31,06,57,0.00
2010,01,31,06,58,0.00
2010,01,31,06,59,0.00
2010,01,31,07,00,0.00
2010,01,31,07,01,0.00
2010,01,31,07,02,0.00
2010,01,31,07,03,0.00
2010,01,31,07,04,0.00
2010,01,31,07,05,0.00
2010,01,31,07,06,0.00
2010,01,31,07,07,0.00
2010,01,31,07,08,0.00
2010,01,31,07,09,0.00
2010,01,31,07,10,0.00
2010,01,31,07,11,0.00
2010,01,31,07,12,0.00
2010,01,31,07,13,0.00
2010,01,31,07,14,0.00
2010,01,31,07,15,0.00
2010,01,31,07,16,0.00
2010,01,31,07,17,0.00
2010,01,31,07,18,0.00
2010,01,31,07,19,0.00
2010,01,31,07,20,0.00
2010,01,31,07,21,0.00
2010,01,31,07,22,0.00
2010,01,31,07,23,0.00
2010,01,31,07,24,0.00
2010,01,31,07,25,0.00
2010,01,31,07,26,0.00
2010,01,31,07,27,0.00
2010,01,31,07,28,0.00
2010,01,31,07,29,0.00
2010,01,31,07,30,0.00
2010,01,31,07,31,0.00
2010,01,31,07,32,0.00
2010,01,31,07,33,0.00
2010,01,31,07,34,0.00
2010,01,31,07,35,0.00
2010,01,31,07,36,0.00
2010,01,31,07,37,0.00
2010,01,31,07,38,0.00
2010,01,31,07,39,0.00
2010,01,31,07,40,0.00
2010,01,31,07,41,0.00
2010,01,31,07,42,0.00
2010,01,31,07,43,0.00
2010,01,31,07,44,0.00
2010,01,31,07,45,0.00
2010,01,31,07,46,0.00
2010,01,31,07,47,0.00
2010,01,31,07,48,0.00
2010,01,31,07,49,0.00
2010,01,31,07,50,0.00
2010,01,31,07,51,0.00
2010,01,31,07,52,0.00
2010,01,31,07,53,0.00
2010,01,31,07,54,0.00
2010,01,31,07,55,0.00
2010,01,31,07,56,0.00
2010,01,31,07,57,0.00
2010,01,31,07,58,0.00
2010,01,31,07,59,0.00
2010,01,31,08,00,0.00
2010,01,31,08,01,0.00
2010,01,31,08,02,0.00
2010,01,31,08,03,0.00
2010,01,31,08,04,0.00
2010,01,31,08,05,1.70
2010,01,31,08,06,5.00
2010,01,31,08,07,5.00
2010,01,31,08,08,5.70
2010,01,31,08,09,7.00
2010,01,31,08,10,7.00
2010,01,31,08,11,6.30
2010,01,31,08,12,5.00
2010,01,31,08,13,5.00
2010,01,31,08,14,5.70
2010,01,31,08,15,7.00
2010,01,31,08,16,7.00
2010,01,31,08,17,7.60
2010,01,31,08,18,9.00
2010,01,31,08,19,9.00
2010,01,31,08,20,8.30
2010,01,31,08,21,7.00
2010,01,31,08,22,7.00
2010,01,31,08,23,7.70
2010,01,31,08,24,9.00
2010,01,31,08,25,9.00
2010,01,31,08,26,9.00
2010,01,31,08,27,9.00
2010,01,31,08,28,9.00
2010,01,31,08,29,9.00
2010,01,31,08,30,9.90
2010,01,31,08,31,13.70
2010,01,31,08,32,19.50
2010,01,31,08,33,23.70
2010,01,31,08,34,25.30
2010,01,31,08,35,26.70
2010,01,31,08,36,28.60
2010,01,31,08,37,30.00
2010,01,31,08,38,30.00
2010,01,31,08,39,30.70
2010,01,31,08,40,32.00
2010,01,31,08,41,32.00
2010,01,31,08,42,32.30
2010,01,31,08,43,33.00
2010,01,31,08,44,33.70
2010,01,31,08,45,35.60
2010,01,31,08,46,37.60
2010,01,31,08,47,39.00
2010,01,31,08,48,39.00
2010,01,31,08,49,38.30
2010,01,31,08,50,37.00
2010,01,31,08,51,37.00
2010,01,31,08,52,37.00
2010,01,31,08,53,37.00
2010,01,31,08,54,37.00
2010,01,31,08,55,37.00
2010,01,31,08,56,37.00
2010,01,31,08,57,37.50
2010,01,31,08,58,39.30
2010,01,31,08,59,41.10
2010,01,31,09,00,44.60
2010,01,31,09,01,47.00
2010,01,31,09,02,49.00
2010,01,31,09,03,49.60
2010,01,31,09,04,51.00
2010,01,31,09,05,51.70
2010,01,31,09,06,53.00
2010,01,31,09,07,53.30
2010,01,31,09,08,54.00
2010,01,31,09,09,54.00
2010,01,31,09,10,54.00
2010,01,31,09,11,54.00
2010,01,31,09,12,53.80
2010,01,31,09,13,53.00
2010,01,31,09,14,53.00
2010,01,31,09,15,52.40
2010,01,31,09,16,49.80
2010,01,31,09,17,46.70
2010,01,31,09,18,46.00
2010,01,31,09,19,46.00
2010,01,31,09,20,46.00
2010,01,31,09,21,46.30
2010,01,31,09,22,48.20
2010,01,31,09,23,51.50
2010,01,31,09,24,53.20
2010,01,31,09,25,54.50
2010,01,31,09,26,56.00
2010,01,31,09,27,56.00
2010,01,31,09,28,55.40
2010,01,31,09,29,53.10
2010,01,31,09,30,50.00
2010,01,31,09,31,46.20
2010,01,31,09,32,42.80
2010,01,31,09,33,37.30
2010,01,31,09,34,33.00
2010,01,31,09,35,33.60
2010,01,31,09,36,36.70
2010,01,31,09,37,41.80
2010,01,31,09,38,46.80
2010,01,31,09,39,49.00
2010,01,31,09,40,48.40
2010,01,31,09,41,46.80
2010,01,31,09,42,45.40
2010,01,31,09,43,44.00
2010,01,31,09,44,44.60
2010,01,31,09,45,46.80
2010,01,31,09,46,50.00
2010,01,31,09,47,53.90
2010,01,31,09,48,57.80
2010,01,31,09,49,63.20
2010,01,31,09,50,68.80
2010,01,31,09,51,74.80
2010,01,31,09,52,79.10
2010,01,31,09,53,86.20
2010,01,31,09,54,94.80
2010,01,31,09,55,102.10
2010,01,31,09,56,108.20
2010,01,31,09,57,111.80
2010,01,31,09,58,115.70
2010,01,31,09,59,120.30
2010,01,31,10,00,121.00
2010,01,31,10,01,121.00
2010,01,31,10,02,121.00
2010,01,31,10,03,122.20
2010,01,31,10,04,126.80
2010,01,31,10,05,133.80
2010,01,31,10,06,141.60
2010,01,31,10,07,150.90
2010,01,31,10,08,160.10
2010,01,31,10,09,165.50
2010,01,31,10,10,167.00
2010,01,31,10,11,166.40
2010,01,31,10,12,165.60
2010,01,31,10,13,168.80
2010,01,31,10,14,176.60
2010,01,31,10,15,185.60
2010,01,31,10,16,192.80
2010,01,31,10,17,195.00
2010,01,31,10,18,194.20
2010,01,31,10,19,192.00
2010,01,31,10,20,194.10
2010,01,31,10,21,202.50
2010,01,31,10,22,215.00
2010,01,31,10,23,229.10
2010,01,31,10,24,234.90
2010,01,31,10,25,236.20
2010,01,31,10,26,232.20
2010,01,31,10,27,226.50
2010,01,31,10,28,222.90
2010,01,31,10,29,219.50
2010,01,31,10,30,232.20
2010,01,31,10,31,264.70
2010,01,31,10,32,276.90
2010,01,31,10,33,277.50
2010,01,31,10,34,271.80
2010,01,31,10,35,259.40
2010,01,31,10,36,241.60
2010,01,31,10,37,225.20
2010,01,31,10,38,205.80
2010,01,31,10,39,187.90
2010,01,31,10,40,183.00
2010,01,31,10,41,183.80
2010,01,31,10,42,184.20
2010,01,31,10,43,176.60
2010,01,31,10,44,169.80
2010,01,31,10,45,166.00
2010,01,31,10,46,169.20
2010,01,31,10,47,193.60
2010,01,31,10,48,208.30
2010,01,31,10,49,214.50
2010,01,31,10,50,224.50
2010,01,31,10,51,228.50
2010,01,31,10,52,225.50
2010,01,31,10,53,216.90
2010,01,31,10,54,204.60
2010,01,31,10,55,198.40
2010,01,31,10,56,197.00
2010,01,31,10,57,194.40
2010,01,31,10,58,188.00
2010,01,31,10,59,185.10
2010,01,31,11,00,178.00
2010,01,31,11,01,177.40
2010,01,31,11,02,176.60
2010,01,31,11,03,178.30
2010,01,31,11,04,178.70
2010,01,31,11,05,175.40
2010,01,31,11,06,169.00
2010,01,31,11,07,169.80
2010,01,31,11,08,172.00
2010,01,31,11,09,169.90
2010,01,31,11,10,164.20
2010,01,31,11,11,162.00
2010,01,31,11,12,163.50
2010,01,31,11,13,164.90
2010,01,31,11,14,159.50
2010,01,31,11,15,158.00
2010,01,31,11,16,158.00
2010,01,31,11,17,158.50
2010,01,31,11,18,160.60
2010,01,31,11,19,162.30
2010,01,31,11,20,162.70
2010,01,31,11,21,159.80
2010,01,31,11,22,152.40
2010,01,31,11,23,151.60
2010,01,31,11,24,152.40
2010,01,31,11,25,150.10
2010,01,31,11,26,146.20
2010,01,31,11,27,141.70
2010,01,31,11,28,141.00
2010,01,31,11,29,141.00
2010,01,31,11,30,141.00
2010,01,31,11,31,141.30
2010,01,31,11,32,143.50
2010,01,31,11,33,149.80
2010,01,31,11,34,157.40
2010,01,31,11,35,164.80
2010,01,31,11,36,171.10
2010,01,31,11,37,180.70
2010,01,31,11,38,197.00
2010,01,31,11,39,214.20
2010,01,31,11,40,230.50
2010,01,31,11,41,233.20
2010,01,31,11,42,237.80
2010,01,31,11,43,242.80
2010,01,31,11,44,243.90
2010,01,31,11,45,229.90
2010,01,31,11,46,221.50
2010,01,31,11,47,230.30
2010,01,31,11,48,230.40
2010,01,31,11,49,197.60
2010,01,31,11,50,189.90
2010,01,31,11,51,183.80
2010,01,31,11,52,180.10
2010,01,31,11,53,178.00
2010,01,31,11,54,179.20
2010,01,31,11,55,185.50
2010,01,31,11,56,196.80
2010,01,31,11,57,212.40
2010,01,31,11,58,236.60
2010,01,31,11,59,282.40
2010,01,31,12,00,368.30
2010,01,31,12,01,416.40
2010,01,31,12,02,410.30
2010,01,31,12,03,381.40
2010,01,31,12,04,338.10
2010,01,31,12,05,332.20
2010,01,31,12,06,331.80
2010,01,31,12,07,353.00
2010,01,31,12,08,353.00
2010,01,31,12,09,339.20
2010,01,31,12,10,311.00
2010,01,31,12,11,327.70
2010,01,31,12,12,361.40
2010,01,31,12,13,415.00
2010,01,31,12,14,415.00
2010,01,31,12,15,455.30
2010,01,31,12,16,554.80
2010,01,31,12,17,559.20
2010,01,31,12,18,552.10
2010,01,31,12,19,534.90
2010,01,31,12,20,482.00
2010,01,31,12,21,518.50
2010,01,31,12,22,591.00
2010,01,31,12,23,555.00
2010,01,31,12,24,496.20
2010,01,31,12,25,337.50
2010,01,31,12,26,310.30
2010,01,31,12,27,380.40
2010,01,31,12,28,394.20
2010,01,31,12,29,401.20
2010,01,31,12,30,492.20
2010,01,31,12,31,528.00
2010,01,31,12,32,485.00
2010,01,31,12,33,497.00
2010,01,31,12,34,448.50
2010,01,31,12,35,315.50
2010,01,31,12,36,280.70
2010,01,31,12,37,310.50
2010,01,31,12,38,373.50
2010,01,31,12,39,426.20
2010,01,31,12,40,421.90
2010,01,31,12,41,340.80
2010,01,31,12,42,274.70
2010,01,31,12,43,242.40
2010,01,31,12,44,222.20
2010,01,31,12,45,199.80
2010,01,31,12,46,185.00
2010,01,31,12,47,187.40
2010,01,31,12,48,208.60
2010,01,31,12,49,251.30
2010,01,31,12,50,280.50
2010,01,31,12,51,330.00
2010,01,31,12,52,385.00
2010,01,31,12,53,509.00
2010,01,31,12,54,469.40
2010,01,31,12,55,419.10
2010,01,31,12,56,390.20
2010,01,31,12,57,371.20
2010,01,31,12,58,304.00
2010,01,31,12,59,305.20
2010,01,31,13,00,317.40
2010,01,31,13,01,348.00
2010,01,31,13,02,348.00
2010,01,31,13,03,353.30
2010,01,31,13,04,382.50
2010,01,31,13,05,422.00
2010,01,31,13,06,422.00
2010,01,31,13,07,422.00
2010,01,31,13,08,388.50
2010,01,31,13,09,280.50
2010,01,31,13,10,258.00
2010,01,31,13,11,281.50
2010,01,31,13,12,338.00
2010,01,31,13,13,314.50
2010,01,31,13,14,258.00
2010,01,31,13,15,258.00
2010,01,31,13,16,259.20
2010,01,31,13,17,265.50
2010,01,31,13,18,290.50
2010,01,31,13,19,330.00
2010,01,31,13,20,330.00
2010,01,31,13,21,316.40
2010,01,31,13,22,276.30
2010,01,31,13,23,266.50
2010,01,31,13,24,271.00
2010,01,31,13,25,271.00
2010,01,31,13,26,353.50
2010,01,31,13,27,601.00
2010,01,31,13,28,510.10
2010,01,31,13,29,273.80
2010,01,31,13,30,228.80
2010,01,31,13,31,226.20
2010,01,31,13,32,250.80
2010,01,31,13,33,316.00
2010,01,31,13,34,378.10
2010,01,31,13,35,533.80
2010,01,31,13,36,554.00
2010,01,31,13,37,471.60
2010,01,31,13,38,301.40
2010,01,31,13,39,367.00
2010,01,31,13,40,426.80
2010,01,31,13,41,606.00
2010,01,31,13,42,533.40
2010,01,31,13,43,359.00
2010,01,31,13,44,330.50
2010,01,31,13,45,253.20
2010,01,31,13,46,225.20
2010,01,31,13,47,211.10
2010,01,31,13,48,222.80
2010,01,31,13,49,240.50
2010,01,31,13,50,241.10
2010,01,31,13,51,230.20
2010,01,31,13,52,222.20
2010,01,31,13,53,224.40
2010,01,31,13,54,216.00
2010,01,31,13,55,190.00
2010,01,31,13,56,170.10
2010,01,31,13,57,145.40
2010,01,31,13,58,128.80
2010,01,31,13,59,119.50
2010,01,31,14,00,115.50
2010,01,31,14,01,115.20
2010,01,31,14,02,118.60
2010,01,31,14,03,120.00
2010,01,31,14,04,120.90
2010,01,31,14,05,123.50
2010,01,31,14,06,125.60
2010,01,31,14,07,127.30
2010,01,31,14,08,128.00
2010,01,31,14,09,128.00
2010,01,31,14,10,128.60
2010,01,31,14,11,130.60
2010,01,31,14,12,133.50
2010,01,31,14,13,138.80
2010,01,31,14,14,146.60
2010,01,31,14,15,155.90
2010,01,31,14,16,165.40
2010,01,31,14,17,172.50
2010,01,31,14,18,176.90
2010,01,31,14,19,177.50
2010,01,31,14,20,170.80
2010,01,31,14,21,161.10
2010,01,31,14,22,154.50
2010,01,31,14,23,150.40
2010,01,31,14,24,149.00
2010,01,31,14,25,149.00
2010,01,31,14,26,149.00
2010,01,31,14,27,149.60
2010,01,31,14,28,151.00
2010,01,31,14,29,151.00
2010,01,31,14,30,151.00
2010,01,31,14,31,150.10
2010,01,31,14,32,146.30
2010,01,31,14,33,140.50
2010,01,31,14,34,136.10
2010,01,31,14,35,132.80
2010,01,31,14,36,129.20
2010,01,31,14,37,126.40
2010,01,31,14,38,123.50
2010,01,31,14,39,118.80
2010,01,31,14,40,115.10
2010,01,31,14,41,111.80
2010,01,31,14,42,107.90
2010,01,31,14,43,104.70
2010,01,31,14,44,103.50
2010,01,31,14,45,102.00
2010,01,31,14,46,102.00
2010,01,31,14,47,101.40
2010,01,31,14,48,100.00
2010,01,31,14,49,100.00
2010,01,31,14,50,100.60
2010,01,31,14,51,102.60
2010,01,31,14,52,104.20
2010,01,31,14,53,105.50
2010,01,31,14,54,107.00
2010,01,31,14,55,107.60
2010,01,31,14,56,109.00
2010,01,31,14,57,109.00
2010,01,31,14,58,109.50
2010,01,31,14,59,111.60
2010,01,31,15,00,113.30
2010,01,31,15,01,115.80
2010,01,31,15,02,121.50
2010,01,31,15,03,126.90
2010,01,31,15,04,134.60
2010,01,31,15,05,144.50
2010,01,31,15,06,157.10
2010,01,31,15,07,171.70
2010,01,31,15,08,185.50
2010,01,31,15,09,193.60
2010,01,31,15,10,194.10
2010,01,31,15,11,189.40
2010,01,31,15,12,180.40
2010,01,31,15,13,172.10
2010,01,31,15,14,165.80
2010,01,31,15,15,163.50
2010,01,31,15,16,166.00
2010,01,31,15,17,169.50
2010,01,31,15,18,170.00
2010,01,31,15,19,165.80
2010,01,31,15,20,159.80
2010,01,31,15,21,151.10
2010,01,31,15,22,144.60
2010,01,31,15,23,139.80
2010,01,31,15,24,136.10
2010,01,31,15,25,133.40
2010,01,31,15,26,132.00
2010,01,31,15,27,132.00
2010,01,31,15,28,132.00
2010,01,31,15,29,130.80
2010,01,31,15,30,127.70
2010,01,31,15,31,125.80
2010,01,31,15,32,122.10
2010,01,31,15,33,119.50
2010,01,31,15,34,118.00
2010,01,31,15,35,118.00
2010,01,31,15,36,118.80
2010,01,31,15,37,121.90
2010,01,31,15,38,127.10
2010,01,31,15,39,132.90
2010,01,31,15,40,135.00
2010,01,31,15,41,134.70
2010,01,31,15,42,132.80
2010,01,31,15,43,127.20
2010,01,31,15,44,124.10
2010,01,31,15,45,119.50
2010,01,31,15,46,114.50
2010,01,31,15,47,108.90
2010,01,31,15,48,102.40
2010,01,31,15,49,95.20
2010,01,31,15,50,90.10
2010,01,31,15,51,86.90
2010,01,31,15,52,83.10
2010,01,31,15,53,80.40
2010,01,31,15,54,78.40
2010,01,31,15,55,76.20
2010,01,31,15,56,73.50
2010,01,31,15,57,71.40
2010,01,31,15,58,69.70
2010,01,31,15,59,68.20
2010,01,31,16,00,64.50
2010,01,31,16,01,61.50
2010,01,31,16,02,56.80
2010,01,31,16,03,53.20
2010,01,31,16,04,50.40
2010,01,31,16,05,48.40
2010,01,31,16,06,46.70
2010,01,31,16,07,45.40
2010,01,31,16,08,43.40
2010,01,31,16,09,41.10
2010,01,31,16,10,38.40
2010,01,31,16,11,37.00
2010,01,31,16,12,36.40
2010,01,31,16,13,35.00
2010,01,31,16,14,35.00
2010,01,31,16,15,35.00
2010,01,31,16,16,35.00
2010,01,31,16,17,34.50
2010,01,31,16,18,33.00
2010,01,31,16,19,33.00
2010,01,31,16,20,32.70
2010,01,31,16,21,32.00
2010,01,31,16,22,31.50
2010,01,31,16,23,30.00
2010,01,31,16,24,30.00
2010,01,31,16,25,29.40
2010,01,31,16,26,28.00
2010,01,31,16,27,27.40
2010,01,31,16,28,26.00
2010,01,31,16,29,26.00
2010,01,31,16,30,25.80
2010,01,31,16,31,25.00
2010,01,31,16,32,25.00
2010,01,31,16,33,25.00
2010,01,31,16,34,25.00
2010,01,31,16,35,25.00
2010,01,31,16,36,25.00
2010,01,31,16,37,24.40
2010,01,31,16,38,23.00
2010,01,31,16,39,22.50
2010,01,31,16,40,21.00
2010,01,31,16,41,21.00
2010,01,31,16,42,21.00
2010,01,31,16,43,20.40
2010,01,31,16,44,18.70
2010,01,31,16,45,17.40
2010,01,31,16,46,15.50
2010,01,31,16,47,14.00
2010,01,31,16,48,13.40
2010,01,31,16,49,12.00
2010,01,31,16,50,12.00
2010,01,31,16,51,12.00
2010,01,31,16,52,12.00
2010,01,31,16,53,11.70
2010,01,31,16,54,11.00
2010,01,31,16,55,10.40
2010,01,31,16,56,8.50
2010,01,31,16,57,7.00
2010,01,31,16,58,6.50
2010,01,31,16,59,5.00
2010,01,31,17,00,5.00
2010,01,31,17,01,5.00
2010,01,31,17,02,5.00
2010,01,31,17,03,5.00
2010,01,31,17,04,5.00
2010,01,31,17,05,5.00
2010,01,31,17,06,3.50
2010,01,31,17,07,0.00
2010,01,31,17,08,0.00
2010,01,31,17,09,0.00
2010,01,31,17,10,0.00
2010,01,31,17,11,0.00
2010,01,31,17,12,0.00
2010,01,31,17,13,0.00
2010,01,31,17,14,0.00
2010,01,31,17,15,0.00
2010,01,31,17,16,0.00
2010,01,31,17,17,0.00
2010,01,31,17,18,0.00
2010,01,31,17,19,0.00
2010,01,31,17,20,0.00
2010,01,31,17,21,0.00
2010,01,31,17,22,0.00
2010,01,31,17,23,0.00
2010,01,31,17,24,0.00
2010,01,31,17,25,0.00
2010,01,31,17,26,0.00
2010,01,31,17,27,0.00
2010,01,31,17,28,0.00
2010,01,31,17,29,0.00
2010,01,31,17,30,0.00